FENGYUN 1C DEB, 31349

Orbit data source: Space-Track

FENGYUN 1C DEB, 31349 is space debris in SSO originally from a launch on Mon, 10 May 1999 UTC launched from the Taiyaun Space Center, China (TSC). Fengyun 1C debris stems from the Chinese weather satellite Fengyun-1C, which was intentionally destroyed by a Chinese anti-satellite missile in 2007. This event dramatically increased the amount of space debris, with thousands of trackable fragments posing hazards to satellites and human spaceflight. The Fengyun 1C debris cloud has become a focal point in discussions about space sustainability and the need for international regulations to prevent the creation of new debris.

Loading next visibility...
Identifier
31349, 1999-025BRD
Orbit
SSO
Country
Flag of CNCN / PRC
Related business
Manufacturer
Unknown
Mission
Spacecraft
Bus & Motor
Unknown
Mass
Unknown
Launch date (UTC)
1999-05-10 (27 years ago)
Launch vehicle
Unknown
Launch site
Taiyaun Space Center, China (TSC)
Object type
Payload
Rocket body
Debris
Shape & HBR
Unknown shape, 1.1 m
Radar Cross Section
Medium (>0.1 m² and <1 m²)

Expand to show TLE details & history
Last TLE update: 1 week ago

TLE from 1 week ago
0 FENGYUN 1C DEB
1 31349U 99025BRD 26164.31220491  .00001401  00000-0  87005-3 0  9995
2 31349  99.2602 202.8084 0071209  98.9574 261.9662 14.05540144655012
Epoch: 2026-06-13T07:29Z
TLE epoch observation values (Epoch: 2026-06-13T07:29:34.504Z)
Latitude
0.00003°
Longitude
-171.21448°
Altitude
885.13 km
Speed
7.406 km/s
True Right ascension
13h 31m 14s
True Declination
0° 00' 00"
Sunlit
Object was in partial shadow at epoch
Visualization orbit readout
Latitude
Unknown
Longitude
Unknown
Altitude
Unknown
Speed
Unknown
Apparent Right ascension
Unknown
Apparent Declination
Unknown
Sunlit
N/A
Visualization observer readout
Local Sidereal Time
08:08:08
Azimuth
Unknown
Elevation
Unknown
Doppler factor
Unknown
Orbital elements
Apogee altitude
923.505 km
Perigee altitude
820.252 km
Semi-major axis
7,250.015 km
Eccentricity
0.00712
Inclination
99.2602°
RAAN
202.8084°
Arg. of periapsis
98.9574°
True anomaly
261.15924°
Mean anomaly
261.9662°
Eccentric anomaly
261.56262°
Mean motion
3.51589 °/min
Orbital period
102.39 mins
BSTAR
0.00087005
Loading maneuver chart data...
Computing Atmospheric mass density...

Documentation

Showing up to 5 results
|